Location: Cabeza Gorda
(40.0667°N, 4.9667°W)
Time: 04:32:29
(UTC+00:00)

Cosmos 540 Rocket - Pass Details

Date: 15 January 2026
Orbit: 736 x 747 km, 74.1° (Epoch: 15 February)

Event Time Altitude Azimuth Distance (km) Brightness Sun altitude
Rises 06:53:55 0° 344° (NNW) 3,174 6.3 -8.9°
Reaches altitude 10° 06:56:18 10° 348° (NNW) 2,248 5.6 -8.5°
Maximum altitude 07:01:20 61° 69° (ENE) 834 4.0 -7.6°
Drops below altitude 10° 07:06:21 10° 150° (SSE) 2,237 6.8 -6.7°
Sets 07:08:43 0° 153° (SSE) 3,158 7.5 -6.3°
